Regional Weather Roundup
Issued by NWS Cleveland, OH

Home | Current Version | Previous Version | Graphics & Text | Print | Product List | Glossary On
Versions: 1 2 3 4 5 6 7 8 9 10 11 12 13 14 15 16 17 18 19 20 21 22 23 24 25 26 27 28 29 30 31 32 33 34 35 36 37 38 39 40 41 42 43 44 45 46 47 48 49 50
000
ASUS41 KCLE 181500
RWRCLE
OHIO REGIONAL WEATHER ROUNDUP
NATIONAL WEATHER SERVICE WILMINGTON, OH
1000 AM EST THU DEC 18 2014

NOTE: "FAIR" INDICATES FEW OR NO CLOUDS BELOW 12,000 FEET WITH NO
SIGNIFICANT WEATHER AND/OR OBSTRUCTIONS TO VISIBILITY.

OHZ001>008-015>018-024>027-034-035-043-044-181600-
   NORTHWEST OHIO

CITY           SKY/WX    TMP DP  RH WIND       PRES   REMARKS
DEFIANCE       CLOUDY    29  23  78 VRB5      30.26  WCI  24
FINDLAY        CLOUDY    29  22  75 W8        30.24R WCI  21
TOLEDO EXPRESS CLOUDY    29  23  78 W12       30.24R WCI  19
TOLEDO METCALF CLOUDY    31  23  72 W9        30.25R WCI  23
LIMA           CLOUDY    31  22  69 W7        30.25R WCI  24
$$

OHZ009>014-019>023-028>033-038-089-181600-
   NORTHEAST OHIO

CITY           SKY/WX    TMP DP  RH WIND       PRES   REMARKS
CLE-HOPKINS    CLOUDY    29  22  75 SW9       30.23R WCI  20
CLE-LAKEFRONT  CLOUDY    31  23  72 SW12      30.20S WCI  22
CUY CO. ARPT   CLOUDY    30  27  86 W14       30.19S WCI  20
LORAIN-ELYRIA  CLOUDY    29  23  78 W12       30.22R WCI  19
ASHTABULA      CLOUDY    30  24  78 W8        30.17S WCI  22
AKRON-CANTON   LGT SNOW  28  22  78 W7        30.19S WCI  21
WOOSTER        NOT AVBL
MANSFIELD      CLOUDY    27  21  78 W6        30.22R WCI  20
YOUNGSTOWN     LGT SNOW  28  22  78 W8        30.16S WCI  20
$$

OHZ042-051>053-060>062-070>072-077>081-181600-
  SOUTHWEST OHIO

CITY           SKY/WX    TMP DP  RH WIND       PRES   REMARKS
CINC-COVINGTON CLOUDY    27  18  69 CALM      30.28F
CINC-LUNKEN    CLOUDY    28  18  66 CALM      30.32S
HAMILTON       CLOUDY    28  18  66 CALM      30.31S
DAYTON         NOT AVBL
WRIGHT-PAT AFB CLOUDY    27  19  71 NW2       30.28R
DAYTON GENERAL CLOUDY    27  18  69 CALM      30.26S
WILMINGTON     CLOUDY    26  17  68 W5        30.26R WCI  20
$$

OHZ036-037-039>041-045>050-054>059-063>069-073>076-082>088-181600-
  CENTRAL AND SOUTHEAST OHIO

CITY           SKY/WX    TMP DP  RH WIND       PRES   REMARKS
COLUMBUS       CLOUDY    27  19  72 NW5       30.27R WCI  22
OSU AIRPORT    CLOUDY    27  20  75 W6        30.26R WCI  20
BOLTON FIELD   CLOUDY    27  21  80 W3        30.27R
RICKENBACK AFB NOT AVBL
NEWARK         CLOUDY    28  20  71 W6        30.25R WCI  22
MARION         CLOUDY    28  20  71 W7        30.25R WCI  21
LANCASTER      CLOUDY    28  20  71 W3        30.28R
ZANESVILLE     CLOUDY    27  19  72 W5        30.25R WCI  22
NEW PHILLY     CLOUDY    29  20  69 W6        30.23S WCI  23
$$


USA.gov is the U.S. government's official web portal to all federal, state and local government web resources and services.